Location: Mount Kobau Star Party
(49.1167°N, 119.7333°W)
Time: 22:11:35
(UTC-07:00)

Vanguard 1 Rocket - Pass Details

Date: 15 July 2025
Orbit: 653 x 4214 km, 34.3° (Epoch: 15 March)

Event Time Altitude Azimuth Distance (km) Brightness Sun altitude
Rises 22:38:03 0° 237° (WSW) 6,600 11.8 -12.3°
Reaches altitude 10° 22:43:53 10° 228° (SW) 4,926 11.0 -12.9°
Maximum altitude 22:53:39 28° 177° (S) 2,581 9.2 -13.7°
Enters shadow 22:57:59 17° 133° (SE) 2,641 9.2 -14.1°
